{"data":{"norad_id":25415,"epoch":"2026-09-19T07:56:16.159776Z","epoch_age_seconds":112281,"freshness":"FRESH","line1":"1 25415U 98046C   26262.33074259  .00000566  00000+0  22477-3 0  9996","line2":"2 25415  44.9930 156.0067 0004298  46.6764  51.6346 14.39642262470341","mean_motion":14.39642262,"eccentricity":0.0004298,"inclination_deg":44.993,"raan_deg":156.0067,"arg_perigee_deg":46.6764,"mean_anomaly_deg":51.6346,"bstar":0.00022477,"rev_number":47034,"period_min":100.02484908991,"perigee_km":756.61283201549,"apogee_km":762.74850008122,"semimajor_km":7137.8176660484,"source":"CELESTRAK","updated_at":"2026-09-20T09:00:44.908835Z"}}